Station Historical Data
Daily Summary for March 3, 2017 Units:  English    Metric   Both
« Previous Day
Next Day »
Daily Weekly Monthly Yearly Custom
  High: Low: Average:
Temperature: 27.7 °F 17.5 °F 22 °F
Dew Point: 19.7 °F 3.4 °F 10.5 °F
Humidity: 85% 44% 61%
Wind Speed: 16.0mph 0.0mph 5.5mph
Wind Gust: 23.0mph - -
Wind- - WNW
Pressure: 30.55 in 30.22 in -
Precipitation: 0.00 in    
Historical Graphs
 
 
Tabular Data for March 3, 2017
Time Temperature Dew Point Pressure Wind Wind Speed Wind Gust Humidity Rainfall Rate (Hourly)
00:04 22.9 °F 13.2 °F 30.23 in NW 8.0 mph 8.0 mph 66% 0.00 in
00:09 22.6 °F 12.6 °F 30.23 in WNW 3.0 mph 8.0 mph 65% 0.00 in
00:14 22.5 °F 12.8 °F 30.23 in NW 4.0 mph 9.0 mph 66% 0.00 in
00:19 22.5 °F 13.2 °F 30.23 in NW 4.0 mph 9.0 mph 67% 0.00 in
00:24 22.5 °F 13.2 °F 30.23 in NW 3.0 mph 8.0 mph 67% 0.00 in
00:29 22.4 °F 13.1 °F 30.23 in NW 3.0 mph 8.0 mph 67% 0.00 in
00:34 22.3 °F 13.0 °F 30.23 in NW 2.0 mph 8.0 mph 67% 0.00 in
00:39 22.3 °F 12.7 °F 30.23 in WNW 3.0 mph 7.0 mph 66% 0.00 in
00:44 22.3 °F 12.7 °F 30.23 in WNW 3.0 mph 6.0 mph 66% 0.00 in
00:49 22.2 °F 12.6 °F 30.24 in WNW 2.0 mph 6.0 mph 66% 0.00 in
00:54 22.2 °F 12.9 °F 30.24 in West 6.0 mph 6.0 mph 67% 0.00 in
00:59 22.2 °F 12.9 °F 30.24 in West 4.0 mph 7.0 mph 67% 0.00 in
01:04 22.1 °F 12.8 °F 30.24 in West 3.0 mph 6.0 mph 67% 0.00 in
01:09 22.0 °F 12.7 °F 30.23 in WNW 3.0 mph 5.0 mph 67% 0.00 in
01:14 22.0 °F 12.7 °F 30.23 in WNW 2.0 mph 5.0 mph 67% 0.00 in
01:19 21.8 °F 12.5 °F 30.23 in West 3.0 mph 5.0 mph 67% 0.00 in
01:24 21.7 °F 12.4 °F 30.23 in West 3.0 mph 7.0 mph 67% 0.00 in
01:29 21.7 °F 12.4 °F 30.23 in West 3.0 mph 7.0 mph 67% 0.00 in
01:34 21.6 °F 13.0 °F 30.23 in WSW 2.0 mph 6.0 mph 69% 0.00 in
01:39 21.3 °F 13.0 °F 30.23 in WSW 2.0 mph 4.0 mph 70% 0.00 in
01:44 21.3 °F 13.4 °F 30.23 in SW 4.0 mph 4.0 mph 71% 0.00 in
01:49 21.4 °F 13.5 °F 30.23 in SW 2.0 mph 5.0 mph 71% 0.00 in
01:54 21.7 °F 13.4 °F 30.23 in SW 2.0 mph 4.0 mph 70% 0.00 in
01:59 21.8 °F 13.5 °F 30.23 in SW 1.0 mph 4.0 mph 70% 0.00 in
02:04 21.8 °F 13.5 °F 30.23 in WSW 1.0 mph 5.0 mph 70% 0.00 in
02:09 21.9 °F 13.6 °F 30.23 in West 4.0 mph 7.0 mph 70% 0.00 in
02:14 21.9 °F 13.6 °F 30.23 in West 2.0 mph 5.0 mph 70% 0.00 in
02:19 22.0 °F 13.7 °F 30.23 in SW 3.0 mph 5.0 mph 70% 0.00 in
02:24 22.1 °F 13.8 °F 30.23 in WSW 3.0 mph 5.0 mph 70% 0.00 in
02:29 22.1 °F 13.5 °F 30.23 in WSW 3.0 mph 6.0 mph 69% 0.00 in
02:34 22.1 °F 13.5 °F 30.22 in WSW 4.0 mph 7.0 mph 69% 0.00 in
02:39 22.0 °F 13.7 °F 30.22 in WSW 3.0 mph 7.0 mph 70% 0.00 in
02:44 21.9 °F 13.9 °F 30.23 in WSW 3.0 mph 7.0 mph 71% 0.00 in
02:49 21.8 °F 13.5 °F 30.23 in West 2.0 mph 4.0 mph 70% 0.00 in
02:54 21.8 °F 13.5 °F 30.22 in WSW 2.0 mph 5.0 mph 70% 0.00 in
02:59 21.7 °F 13.4 °F 30.23 in Calm   3.0 mph 70% 0.00 in
03:04 21.7 °F 13.4 °F 30.23 in WNW 2.0 mph 5.0 mph 70% 0.00 in
03:09 21.5 °F 13.2 °F 30.23 in West 4.0 mph 6.0 mph 70% 0.00 in
03:14 21.4 °F 13.1 °F 30.23 in WSW 5.0 mph 6.0 mph 70% 0.00 in
03:19 21.2 °F 12.6 °F 30.23 in WSW 3.0 mph 8.0 mph 69% 0.00 in
03:24 21.2 °F 12.6 °F 30.23 in WSW 3.0 mph 5.0 mph 69% 0.00 in
03:29 20.9 °F 12.6 °F 30.22 in WSW 3.0 mph 6.0 mph 70% 0.00 in
03:34 20.8 °F 12.6 °F 30.22 in WSW 3.0 mph 6.0 mph 70% 0.00 in
03:39 20.6 °F 12.4 °F 30.22 in WSW 2.0 mph 6.0 mph 70% 0.00 in
03:44 20.3 °F 12.4 °F 30.22 in WSW 2.0 mph 4.0 mph 71% 0.00 in
03:49 20.4 °F 12.5 °F 30.23 in WSW 2.0 mph 5.0 mph 71% 0.00 in
03:54 20.4 °F 12.5 °F 30.23 in West 2.0 mph 6.0 mph 71% 0.00 in
03:59 20.4 °F 12.5 °F 30.23 in WSW 1.0 mph 6.0 mph 71% 0.00 in
04:04 20.3 °F 12.4 °F 30.22 in West 2.0 mph 3.0 mph 71% 0.00 in
04:09 20.4 °F 12.5 °F 30.23 in West 2.0 mph 6.0 mph 71% 0.00 in
04:14 20.5 °F 12.6 °F 30.23 in West 3.0 mph 6.0 mph 71% 0.00 in
04:19 20.6 °F 12.4 °F 30.23 in West 2.0 mph 6.0 mph 70% 0.00 in
04:24 20.6 °F 12.4 °F 30.23 in West 3.0 mph 6.0 mph 70% 0.00 in
04:29 20.7 °F 12.5 °F 30.23 in West 4.0 mph 6.0 mph 70% 0.00 in
04:34 20.8 °F 12.2 °F 30.23 in West 3.0 mph 6.0 mph 69% 0.00 in
04:39 20.9 °F 12.3 °F 30.23 in West 3.0 mph 8.0 mph 69% 0.00 in
04:44 20.9 °F 12.3 °F 30.23 in West 3.0 mph 8.0 mph 69% 0.00 in
04:49 20.9 °F 12.3 °F 30.23 in West 3.0 mph 6.0 mph 69% 0.00 in
04:54 20.8 °F 11.9 °F 30.23 in West 3.0 mph 6.0 mph 68% 0.00 in
04:59 20.9 °F 12.0 °F 30.23 in NW 3.0 mph 7.0 mph 68% 0.00 in
05:04 20.9 °F 12.0 °F 30.23 in West 2.0 mph 4.0 mph 68% 0.00 in
05:09 21.0 °F 12.1 °F 30.23 in West 2.0 mph 5.0 mph 68% 0.00 in
05:14 21.2 °F 11.9 °F 30.23 in West 5.0 mph 6.0 mph 67% 0.00 in
05:19 21.3 °F 12.0 °F 30.23 in WSW 2.0 mph 5.0 mph 67% 0.00 in
05:24 21.4 °F 12.1 °F 30.23 in West 3.0 mph 6.0 mph 67% 0.00 in
05:29 21.6 °F 12.0 °F 30.23 in WNW 2.0 mph 5.0 mph 66% 0.00 in
05:34 21.7 °F 12.1 °F 30.23 in WSW 2.0 mph 7.0 mph 66% 0.00 in
05:39 21.8 °F 11.8 °F 30.23 in West 4.0 mph 5.0 mph 65% 0.00 in
05:44 21.9 °F 11.9 °F 30.23 in West 2.0 mph 5.0 mph 65% 0.00 in
05:49 22.0 °F 12.0 °F 30.23 in West 2.0 mph 5.0 mph 65% 0.00 in
05:54 22.2 °F 11.5 °F 30.23 in West 3.0 mph 5.0 mph 63% 0.00 in
05:59 22.3 °F 11.6 °F 30.23 in West 2.0 mph 5.0 mph 63% 0.00 in
06:04 22.4 °F 11.7 °F 30.23 in West 2.0 mph 5.0 mph 63% 0.00 in
06:09 22.5 °F 11.4 °F 30.23 in WSW 3.0 mph 5.0 mph 62% 0.00 in
06:14 22.5 °F 11.4 °F 30.23 in West 3.0 mph 4.0 mph 62% 0.00 in
06:19 22.6 °F 11.9 °F 30.23 in West 2.0 mph 4.0 mph 63% 0.00 in
06:24 22.7 °F 12.0 °F 30.23 in WSW 2.0 mph 3.0 mph 63% 0.00 in
06:29 22.8 °F 11.7 °F 30.23 in WSW 3.0 mph 5.0 mph 62% 0.00 in
06:34 22.9 °F 12.2 °F 30.23 in WSW 3.0 mph 7.0 mph 63% 0.00 in
06:39 23.0 °F 12.3 °F 30.23 in Calm   6.0 mph 63% 0.00 in
06:44 23.0 °F 12.6 °F 30.23 in West 3.0 mph 3.0 mph 64% 0.00 in
06:49 23.0 °F 12.6 °F 30.23 in WSW 5.0 mph 5.0 mph 64% 0.00 in
06:54 23.1 °F 12.4 °F 30.23 in WSW 3.0 mph 7.0 mph 63% 0.00 in
06:59 23.2 °F 12.5 °F 30.23 in WSW 4.0 mph 9.0 mph 63% 0.00 in
07:04 23.2 °F 12.5 °F 30.23 in WSW 4.0 mph 9.0 mph 63% 0.00 in
07:09 23.4 °F 12.6 °F 30.23 in West 4.0 mph 7.0 mph 63% 0.00 in
07:14 23.5 °F 13.1 °F 30.24 in WSW 2.0 mph 9.0 mph 64% 0.00 in
07:19 23.6 °F 13.2 °F 30.24 in WSW 2.0 mph 5.0 mph 64% 0.00 in
07:24 23.7 °F 13.3 °F 30.24 in WSW 3.0 mph 5.0 mph 64% 0.00 in
07:29 24.0 °F 13.6 °F 30.24 in WSW 3.0 mph 6.0 mph 64% 0.00 in
07:34 24.2 °F 13.4 °F 30.24 in WSW 3.0 mph 7.0 mph 63% 0.00 in
07:39 24.4 °F 13.6 °F 30.24 in West 4.0 mph 7.0 mph 63% 0.00 in
07:44 24.6 °F 13.8 °F 30.24 in West 4.0 mph 10.0 mph 63% 0.00 in
07:49 24.8 °F 13.6 °F 30.24 in WSW 6.0 mph 9.0 mph 62% 0.00 in
07:54 25.0 °F 13.8 °F 30.24 in WNW 4.0 mph 12.0 mph 62% 0.00 in
07:59 25.1 °F 13.9 °F 30.24 in West 9.0 mph 14.0 mph 62% 0.00 in
08:04 25.2 °F 14.4 °F 30.24 in West 6.0 mph 14.0 mph 63% 0.00 in
08:09 25.3 °F 14.8 °F 30.24 in West 5.0 mph 11.0 mph 64% 0.00 in
08:14 25.4 °F 15.3 °F 30.24 in WNW 6.0 mph 11.0 mph 65% 0.00 in
08:19 25.6 °F 15.5 °F 30.24 in WSW 6.0 mph 15.0 mph 65% 0.00 in
08:24 25.7 °F 15.6 °F 30.25 in West 10.0 mph 13.0 mph 65% 0.00 in
08:29 25.7 °F 15.9 °F 30.25 in WNW 7.0 mph 17.0 mph 66% 0.00 in
08:34 25.9 °F 16.4 °F 30.25 in WNW 8.0 mph 17.0 mph 67% 0.00 in
08:39 25.8 °F 16.7 °F 30.25 in WNW 9.0 mph 16.0 mph 68% 0.00 in
08:44 26.2 °F 17.1 °F 30.25 in WNW 8.0 mph 16.0 mph 68% 0.00 in
08:49 26.5 °F 17.4 °F 30.25 in WNW 7.0 mph 15.0 mph 68% 0.00 in
08:54 26.7 °F 17.2 °F 30.25 in NW 6.0 mph 17.0 mph 67% 0.00 in
08:59 26.3 °F 16.5 °F 30.26 in NW 10.0 mph 17.0 mph 66% 0.00 in
09:04 26.5 °F 16.7 °F 30.25 in West 8.0 mph 12.0 mph 66% 0.00 in
09:09 26.2 °F 16.7 °F 30.26 in WNW 8.0 mph 14.0 mph 67% 0.00 in
09:14 26.7 °F 16.9 °F 30.26 in WNW 8.0 mph 15.0 mph 66% 0.00 in
09:19 27.6 °F 17.0 °F 30.26 in WNW 7.0 mph 15.0 mph 64% 0.00 in
09:24 27.7 °F 16.4 °F 30.26 in WNW 7.0 mph 16.0 mph 62% 0.00 in
09:29 26.9 °F 15.6 °F 30.26 in NW 4.0 mph 13.0 mph 62% 0.00 in
09:34 26.7 °F 15.8 °F 30.26 in WNW 12.0 mph 16.0 mph 63% 0.00 in
09:39 26.8 °F 16.2 °F 30.26 in WSW 12.0 mph 13.0 mph 64% 0.00 in
09:44 27.2 °F 16.6 °F 30.27 in WNW 8.0 mph 15.0 mph 64% 0.00 in
09:49 27.0 °F 16.8 °F 30.27 in West 8.0 mph 15.0 mph 65% 0.00 in
09:54 27.6 °F 17.4 °F 30.27 in WNW 7.0 mph 15.0 mph 65% 0.00 in
09:59 26.9 °F 18.1 °F 30.27 in NW 2.0 mph 14.0 mph 69% 0.00 in
10:04 26.4 °F 18.3 °F 30.27 in WNW 4.0 mph 13.0 mph 71% 0.00 in
10:09 25.3 °F 19.1 °F 30.28 in West 11.0 mph 14.0 mph 77% 0.00 in
10:14 24.5 °F 19.2 °F 30.29 in NW 8.0 mph 12.0 mph 80% 0.00 in
10:19 24.0 °F 19.3 °F 30.29 in WNW 6.0 mph 15.0 mph 82% 0.00 in
10:24 23.8 °F 19.4 °F 30.29 in West 5.0 mph 12.0 mph 83% 0.00 in
10:29 23.8 °F 19.7 °F 30.30 in NW 5.0 mph 12.0 mph 84% 0.00 in
10:34 23.1 °F 19.0 °F 30.30 in WNW 7.0 mph 17.0 mph 84% 0.00 in
10:39 22.7 °F 18.9 °F 30.31 in NNW 5.0 mph 11.0 mph 85% 0.00 in
10:44 22.1 °F 18.0 °F 30.31 in NW 6.0 mph 16.0 mph 84% 0.00 in
10:49 21.8 °F 18.0 °F 30.32 in NNW 8.0 mph 17.0 mph 85% 0.00 in
10:54 21.8 °F 17.7 °F 30.32 in NNW 8.0 mph 17.0 mph 84% 0.00 in
10:59 21.8 °F 17.7 °F 30.32 in NNW 9.0 mph 19.0 mph 84% 0.00 in
11:04 22.3 °F 17.6 °F 30.33 in North 4.0 mph 15.0 mph 82% 0.00 in
11:09 22.9 °F 17.4 °F 30.33 in NW 7.0 mph 14.0 mph 79% 0.00 in
11:14 23.9 °F 15.5 °F 30.33 in North 8.0 mph 19.0 mph 70% 0.00 in
11:19 24.4 °F 14.7 °F 30.33 in NW 9.0 mph 19.0 mph 66% 0.00 in
11:24 24.9 °F 13.7 °F 30.33 in NNW 9.0 mph 23.0 mph 62% 0.00 in
11:29 24.2 °F 12.7 °F 30.34 in NNW 10.0 mph 23.0 mph 61% 0.01 in
11:34 24.7 °F 13.5 °F 30.34 in WNW 12.0 mph 20.0 mph 62% 0.01 in
11:39 24.0 °F 12.1 °F 30.34 in NNW 10.0 mph 19.0 mph 60% 0.01 in
11:44 24.7 °F 13.1 °F 30.35 in NNW 11.0 mph 19.0 mph 61% 0.01 in
11:49 24.6 °F 11.9 °F 30.35 in NW 9.0 mph 19.0 mph 58% 0.01 in
11:54 24.8 °F 12.1 °F 30.35 in NW 9.0 mph 18.0 mph 58% 0.01 in
11:59 23.5 °F 8.9 °F 30.35 in NW 5.0 mph 17.0 mph 53% 0.01 in
12:04 23.6 °F 8.9 °F 30.36 in NNW 8.0 mph 19.0 mph 53% 0.01 in
12:09 23.6 °F 8.9 °F 30.36 in NW 4.0 mph 22.0 mph 53% 0.01 in
12:14 23.6 °F 7.7 °F 30.36 in NE 10.0 mph 15.0 mph 50% 0.01 in
12:19 23.5 °F 6.7 °F 30.36 in NNW 10.0 mph 22.0 mph 48% 0.01 in
12:24 23.8 °F 6.5 °F 30.37 in NW 11.0 mph 22.0 mph 47% 0.01 in
12:29 24.2 °F 7.3 °F 30.37 in NW 9.0 mph 22.0 mph 48% 0.00 in
12:34 23.9 °F 5.1 °F 30.37 in NW 7.0 mph 16.0 mph 44% 0.00 in
12:39 24.3 °F 6.5 °F 30.37 in NW 8.0 mph 18.0 mph 46% 0.00 in
12:44 25.4 °F 8.4 °F 30.37 in NNW 10.0 mph 15.0 mph 48% 0.00 in
12:49 25.5 °F 8.0 °F 30.37 in NNW 16.0 mph 18.0 mph 47% 0.00 in
12:54 25.8 °F 9.2 °F 30.38 in NW 9.0 mph 18.0 mph 49% 0.00 in
12:59 25.3 °F 8.8 °F 30.38 in NW 8.0 mph 16.0 mph 49% 0.00 in
13:04 25.2 °F 6.8 °F 30.37 in North 4.0 mph 18.0 mph 45% 0.00 in
13:09 25.1 °F 7.2 °F 30.38 in West 12.0 mph 17.0 mph 46% 0.00 in
13:14 25.5 °F 7.6 °F 30.38 in West 10.0 mph 16.0 mph 46% 0.00 in
13:19 24.7 °F 7.8 °F 30.38 in WNW 8.0 mph 18.0 mph 48% 0.00 in
13:24 24.3 °F 6.9 °F 30.38 in NNW 6.0 mph 18.0 mph 47% 0.00 in
13:29 24.3 °F 7.4 °F 30.39 in NNW 8.0 mph 18.0 mph 48% 0.00 in
13:34 24.0 °F 8.0 °F 30.39 in NW 8.0 mph 18.0 mph 50% 0.00 in
13:39 24.0 °F 8.0 °F 30.39 in NW 9.0 mph 17.0 mph 50% 0.00 in
13:44 23.4 °F 6.6 °F 30.39 in WNW 10.0 mph 18.0 mph 48% 0.00 in
13:49 23.7 °F 6.8 °F 30.39 in North 8.0 mph 17.0 mph 48% 0.00 in
13:54 23.3 °F 6.5 °F 30.40 in North 6.0 mph 20.0 mph 48% 0.00 in
14:04 24.4 °F 7.5 °F 30.40 in NW 8.0 mph 18.0 mph 48% 0.00 in
14:09 24.6 °F 8.1 °F 30.40 in WNW 10.0 mph 18.0 mph 49% 0.00 in
14:14 24.7 °F 9.1 °F 30.40 in WNW 10.0 mph 18.0 mph 51% 0.00 in
14:19 25.3 °F 9.2 °F 30.40 in West 5.0 mph 13.0 mph 50% 0.00 in
14:24 24.4 °F 7.9 °F 30.41 in NNW 5.0 mph 22.0 mph 49% 0.00 in
14:29 23.4 °F 7.0 °F 30.41 in West 9.0 mph 23.0 mph 49% 0.00 in
14:34 23.6 °F 6.8 °F 30.41 in NW 8.0 mph 23.0 mph 48% 0.00 in
14:39 25.0 °F 8.5 °F 30.41 in NW 9.0 mph 18.0 mph 49% 0.00 in
14:44 23.8 °F 5.5 °F 30.42 in WNW 5.0 mph 19.0 mph 45% 0.00 in
14:49 23.6 °F 6.8 °F 30.42 in WNW 9.0 mph 19.0 mph 48% 0.00 in
14:54 24.1 °F 6.7 °F 30.42 in NW 14.0 mph 18.0 mph 47% 0.00 in
14:59 22.9 °F 6.1 °F 30.43 in WNW 5.0 mph 19.0 mph 48% 0.00 in
15:04 22.4 °F 5.6 °F 30.43 in NW 15.0 mph 18.0 mph 48% 0.00 in
15:09 23.4 °F 5.6 °F 30.43 in NNW 10.0 mph 14.0 mph 46% 0.00 in
15:14 23.0 °F 4.3 °F 30.43 in NW 11.0 mph 19.0 mph 44% 0.00 in
15:19 22.7 °F 5.5 °F 30.44 in NNW 8.0 mph 18.0 mph 47% 0.00 in
15:24 22.5 °F 5.7 °F 30.44 in NW 11.0 mph 15.0 mph 48% 0.00 in
15:29 22.2 °F 6.4 °F 30.44 in North 4.0 mph 13.0 mph 50% 0.00 in
15:34 23.0 °F 6.2 °F 30.44 in WNW 6.0 mph 11.0 mph 48% 0.00 in
15:39 22.4 °F 5.6 °F 30.44 in NW 7.0 mph 15.0 mph 48% 0.00 in
15:44 22.8 °F 6.5 °F 30.44 in NW 8.0 mph 20.0 mph 49% 0.00 in
15:54 23.1 °F 7.2 °F 30.45 in NW 7.0 mph 17.0 mph 50% 0.00 in
15:59 24.0 °F 6.7 °F 30.44 in NW 7.0 mph 17.0 mph 47% 0.00 in
16:04 22.6 °F 6.3 °F 30.45 in NW 5.0 mph 15.0 mph 49% 0.00 in
16:09 23.2 °F 5.9 °F 30.45 in WNW 8.0 mph 14.0 mph 47% 0.00 in
16:14 23.6 °F 5.8 °F 30.45 in NW 11.0 mph 17.0 mph 46% 0.00 in
16:19 22.8 °F 6.0 °F 30.46 in West 6.0 mph 17.0 mph 48% 0.00 in
16:24 22.0 °F 7.0 °F 30.46 in WNW 6.0 mph 15.0 mph 52% 0.00 in
16:29 22.1 °F 7.1 °F 30.46 in WNW 9.0 mph 14.0 mph 52% 0.00 in
16:34 22.3 °F 6.4 °F 30.46 in NW 16.0 mph 16.0 mph 50% 0.00 in
16:39 22.3 °F 6.0 °F 30.46 in NNW 9.0 mph 18.0 mph 49% 0.00 in
16:44 22.5 °F 6.2 °F 30.46 in NW 9.0 mph 18.0 mph 49% 0.00 in
16:49 22.4 °F 6.5 °F 30.46 in NW 7.0 mph 16.0 mph 50% 0.00 in
16:54 22.2 °F 6.4 °F 30.47 in NW 7.0 mph 15.0 mph 50% 0.00 in
16:59 22.2 °F 6.4 °F 30.47 in NW 8.0 mph 17.0 mph 50% 0.00 in
17:04 22.1 °F 7.6 °F 30.47 in West 4.0 mph 15.0 mph 53% 0.00 in
17:09 21.5 °F 6.6 °F 30.48 in North 5.0 mph 14.0 mph 52% 0.00 in
17:14 21.5 °F 6.1 °F 30.48 in NNW 6.0 mph 14.0 mph 51% 0.00 in
17:19 21.3 °F 6.0 °F 30.48 in NW 10.0 mph 18.0 mph 51% 0.00 in
17:24 21.2 °F 6.7 °F 30.48 in WNW 6.0 mph 16.0 mph 53% 0.00 in
17:29 21.3 °F 5.5 °F 30.48 in WNW 9.0 mph 14.0 mph 50% 0.00 in
17:34 21.2 °F 4.5 °F 30.49 in WNW 9.0 mph 16.0 mph 48% 0.00 in
17:39 21.0 °F 3.4 °F 30.49 in West 11.0 mph 17.0 mph 46% 0.00 in
17:44 20.9 °F 3.8 °F 30.49 in WNW 8.0 mph 17.0 mph 47% 0.00 in
17:49 20.9 °F 4.3 °F 30.49 in WNW 7.0 mph 15.0 mph 48% 0.00 in
17:54 20.7 °F 4.1 °F 30.49 in WNW 7.0 mph 16.0 mph 48% 0.00 in
17:59 20.6 °F 5.3 °F 30.50 in WNW 7.0 mph 16.0 mph 51% 0.00 in
18:04 20.2 °F 6.2 °F 30.50 in WNW 7.0 mph 14.0 mph 54% 0.00 in
18:09 20.1 °F 6.1 °F 30.50 in WNW 3.0 mph 11.0 mph 54% 0.00 in
18:14 19.9 °F 6.3 °F 30.50 in NW 9.0 mph 14.0 mph 55% 0.00 in
18:19 19.9 °F 6.7 °F 30.50 in WNW 7.0 mph 14.0 mph 56% 0.00 in
18:24 19.7 °F 6.9 °F 30.50 in NW 3.0 mph 12.0 mph 57% 0.00 in
18:29 19.6 °F 7.2 °F 30.51 in West 3.0 mph 15.0 mph 58% 0.00 in
18:34 19.5 °F 7.5 °F 30.51 in NW 3.0 mph 16.0 mph 59% 0.00 in
18:39 19.5 °F 8.6 °F 30.51 in West 5.0 mph 17.0 mph 62% 0.00 in
18:44 19.2 °F 8.3 °F 30.51 in WNW 11.0 mph 11.0 mph 62% 0.00 in
18:49 19.1 °F 8.2 °F 30.51 in WNW 5.0 mph 12.0 mph 62% 0.00 in
18:54 19.0 °F 8.1 °F 30.51 in WNW 5.0 mph 12.0 mph 62% 0.00 in
18:59 19.1 °F 8.2 °F 30.51 in WNW 4.0 mph 9.0 mph 62% 0.00 in
19:04 19.1 °F 7.8 °F 30.51 in WNW 5.0 mph 10.0 mph 61% 0.00 in
19:09 19.1 °F 7.5 °F 30.51 in WNW 8.0 mph 11.0 mph 60% 0.00 in
19:14 19.2 °F 6.1 °F 30.52 in WNW 6.0 mph 13.0 mph 56% 0.00 in
19:19 19.3 °F 6.5 °F 30.52 in WNW 7.0 mph 13.0 mph 57% 0.00 in
19:24 19.3 °F 6.5 °F 30.52 in WNW 6.0 mph 12.0 mph 57% 0.00 in
19:29 19.4 °F 6.6 °F 30.52 in WNW 8.0 mph 11.0 mph 57% 0.00 in
19:34 19.3 °F 6.1 °F 30.52 in WNW 9.0 mph 16.0 mph 56% 0.00 in
19:39 19.3 °F 6.5 °F 30.52 in WNW 9.0 mph 14.0 mph 57% 0.00 in
19:44 19.2 °F 6.8 °F 30.52 in WNW 6.0 mph 15.0 mph 58% 0.00 in
19:49 19.0 °F 7.0 °F 30.52 in WNW 9.0 mph 13.0 mph 59% 0.00 in
19:54 18.9 °F 6.9 °F 30.53 in WNW 5.0 mph 13.0 mph 59% 0.00 in
19:59 18.8 °F 7.2 °F 30.53 in WNW 6.0 mph 12.0 mph 60% 0.00 in
20:04 18.7 °F 7.1 °F 30.53 in WNW 5.0 mph 10.0 mph 60% 0.00 in
20:09 18.7 °F 6.7 °F 30.53 in WNW 5.0 mph 10.0 mph 59% 0.00 in
20:14 18.6 °F 6.6 °F 30.53 in West 3.0 mph 11.0 mph 59% 0.00 in
20:19 18.6 °F 6.3 °F 30.53 in NNW 9.0 mph 15.0 mph 58% 0.00 in
20:24 18.5 °F 6.5 °F 30.53 in West 4.0 mph 13.0 mph 59% 0.00 in
20:29 18.5 °F 6.9 °F 30.53 in West 6.0 mph 13.0 mph 60% 0.00 in
20:34 18.4 °F 6.8 °F 30.53 in West 7.0 mph 12.0 mph 60% 0.00 in
20:39 18.4 °F 7.2 °F 30.53 in West 7.0 mph 12.0 mph 61% 0.00 in
20:44 18.4 °F 7.2 °F 30.54 in West 7.0 mph 16.0 mph 61% 0.00 in
20:49 18.4 °F 7.5 °F 30.54 in West 5.0 mph 12.0 mph 62% 0.00 in
20:54 18.3 °F 7.4 °F 30.54 in West 5.0 mph 12.0 mph 62% 0.00 in
20:59 18.3 °F 7.4 °F 30.54 in West 7.0 mph 15.0 mph 62% 0.00 in
21:04 18.3 °F 7.8 °F 30.54 in WNW 4.0 mph 8.0 mph 63% 0.00 in
21:09 18.2 °F 7.7 °F 30.54 in WNW 3.0 mph 9.0 mph 63% 0.00 in
21:14 18.3 °F 7.8 °F 30.55 in West 5.0 mph 8.0 mph 63% 0.00 in
21:19 18.2 °F 7.3 °F 30.55 in WNW 9.0 mph 12.0 mph 62% 0.00 in
21:24 18.1 °F 6.9 °F 30.55 in WNW 3.0 mph 10.0 mph 61% 0.00 in
21:29 17.9 °F 6.7 °F 30.55 in West 5.0 mph 10.0 mph 61% 0.00 in
21:34 17.8 °F 7.0 °F 30.55 in West 5.0 mph 10.0 mph 62% 0.00 in
21:39 17.7 °F 6.9 °F 30.55 in WNW 5.0 mph 10.0 mph 62% 0.00 in
21:44 17.5 °F 6.7 °F 30.55 in West 4.0 mph 8.0 mph 62% 0.00 in
21:49 17.6 °F 6.8 °F 30.55 in WNW 3.0 mph 9.0 mph 62% 0.00 in
21:54 17.6 °F 6.8 °F 30.54 in WNW 4.0 mph 9.0 mph 62% 0.00 in
21:59 17.7 °F 6.9 °F 30.55 in WSW 2.0 mph 7.0 mph 62% 0.00 in
22:04 17.9 °F 7.1 °F 30.54 in WSW 1.0 mph 4.0 mph 62% 0.00 in
22:09 17.9 °F 7.4 °F 30.54 in West 1.0 mph 4.0 mph 63% 0.00 in
22:14 18.0 °F 7.2 °F 30.54 in West 6.0 mph 6.0 mph 62% 0.00 in
22:19 18.0 °F 7.2 °F 30.54 in WSW 1.0 mph 5.0 mph 62% 0.00 in
22:24 18.0 °F 7.2 °F 30.54 in West 4.0 mph 6.0 mph 62% 0.00 in
22:29 18.1 °F 7.6 °F 30.54 in West 3.0 mph 6.0 mph 63% 0.00 in
22:34 18.1 °F 7.6 °F 30.54 in West 5.0 mph 8.0 mph 63% 0.00 in
22:39 18.1 °F 7.6 °F 30.54 in WNW 4.0 mph 8.0 mph 63% 0.00 in
22:44 18.2 °F 8.1 °F 30.54 in WNW 4.0 mph 9.0 mph 64% 0.00 in
22:49 18.2 °F 8.1 °F 30.54 in West 4.0 mph 9.0 mph 64% 0.00 in
22:54 18.2 °F 8.1 °F 30.54 in West 4.0 mph 9.0 mph 64% 0.00 in
22:59 18.3 °F 8.5 °F 30.54 in West 2.0 mph 5.0 mph 65% 0.00 in
23:04 18.2 °F 8.4 °F 30.54 in WNW 2.0 mph 8.0 mph 65% 0.00 in
23:09 18.2 °F 8.4 °F 30.54 in WNW 4.0 mph 8.0 mph 65% 0.00 in
23:14 18.1 °F 8.3 °F 30.54 in West 2.0 mph 7.0 mph 65% 0.00 in
23:19 18.1 °F 8.3 °F 30.54 in West 3.0 mph 7.0 mph 65% 0.00 in
23:24 18.2 °F 8.7 °F 30.54 in West 2.0 mph 6.0 mph 66% 0.00 in
23:29 18.2 °F 8.4 °F 30.54 in WSW 3.0 mph 6.0 mph 65% 0.00 in
23:34 18.3 °F 8.5 °F 30.54 in West 5.0 mph 6.0 mph 65% 0.00 in
23:39 18.4 °F 8.6 °F 30.54 in WSW 2.0 mph 7.0 mph 65% 0.00 in
23:44 18.4 °F 8.6 °F 30.54 in West 4.0 mph 7.0 mph 65% 0.00 in
23:49 18.4 °F 8.6 °F 30.54 in West 4.0 mph 7.0 mph 65% 0.00 in
23:54 18.4 °F 8.6 °F 30.54 in West 4.0 mph 8.0 mph 65% 0.00 in
23:59 18.5 °F 8.7 °F 30.54 in NW 6.0 mph 9.0 mph 65% 0.00 in
Buffalo, New York, USA
Compliments of Weather Underground - 2.5 mb